Weather History for Philadelphia Wings Airport, PA

Change the Weather History Date:

Thursday, February 21, 2013

  Actual Average (KPNE) Record (KPNE)
Temperature  
Mean Temperature 30 °F -  
Max Temperature 35 °F 42 °F 68 °F (1997)
Min Temperature 26 °F 26 °F 17 °F (2003)
Degree Days  
Heating Degree Days 34    
Moisture  
Dew Point 15 °F    
Average Humidity 54    
Maximum Humidity 64    
Minimum Humidity 44    
Precipitation  
Precipitation 0.00 in - - ()
Sea Level Pressure  
Sea Level Pressure 30.12 in    
Wind  
Wind Speed 9 mph (NW)    
Max Wind Speed 17 mph    
Max Gust Speed 28 mph    
Visibility 10 miles    
Events      
Averages and records for this station are not official NWS values.
T = Trace of Precipitation, MM = Missing Value Source: NWS Daily Summary

Daily Weather History Graph

Daily Weather History Graph

Search for Another Location

Airport:

Trip Planner

Search our weather history database for the weather conditions in past years. The results will help you decide how hot, cold, wet, or windy it might be!

Date:

Astronomy

Feb. 21, 2013 Rise Set
Actual Time 6:45 AM EST 5:44 PM EST
Civil Twilight 6:18 AM EST 6:11 PM EST
Nautical Twilight 5:46 AM EST 6:43 PM EST
Astronomical Twilight 5:15 AM EST 7:14 PM EST
Moon 1:56 PM EST (2/21) 3:48 AM EST (2/21)
Length of Visible Light 11h 53m
Length of Day
10h 58m
Waxing Gibbous, 83% of the Moon is Illuminated
Feb 21
Waxing Gibbous
Feb 25
Full
Mar 4
Last Quarter
Mar 11
New
Mar 19
First Quarter

Hourly Weather History & Observations

Time (EST) Temp. Windchill Dew Point Humidity Pressure Visibility Wind Dir Wind Speed Gust Speed Precip Events Conditions
12:15 AM 26.6 °F 17.5 °F 12.2 °F 55% 30.04 in 10.0 mi WNW 9.2 mph 16.1 mph N/A   Scattered Clouds
12:35 AM 26.6 °F 19.1 °F 12.2 °F 55% 30.05 in 10.0 mi West 6.9 mph - N/A   Clear
12:55 AM 26.6 °F 18.2 °F 12.2 °F 55% 30.05 in 10.0 mi West 8.1 mph - N/A   Mostly Cloudy
1:15 AM 26.6 °F 19.1 °F 12.2 °F 55% 30.04 in 10.0 mi West 6.9 mph - N/A   Overcast
1:35 AM 26.6 °F 16.8 °F 12.2 °F 55% 30.04 in 10.0 mi WNW 10.4 mph - N/A   Overcast
1:55 AM 26.6 °F 16.8 °F 12.2 °F 55% 30.03 in 10.0 mi WNW 10.4 mph 17.3 mph N/A   Mostly Cloudy
2:15 AM 26.6 °F 16.2 °F 12.2 °F 55% 30.04 in 10.0 mi WNW 11.5 mph 17.3 mph N/A   Overcast
2:35 AM 26.6 °F 18.2 °F 12.2 °F 55% 30.03 in 10.0 mi WNW 8.1 mph - N/A   Overcast
2:55 AM 26.6 °F 20.0 °F 14.0 °F 59% 30.03 in 10.0 mi WNW 5.8 mph - N/A   Overcast
3:15 AM 26.6 °F 18.2 °F 14.0 °F 59% 30.03 in 10.0 mi West 8.1 mph 17.3 mph N/A   Overcast
3:35 AM 26.6 °F 19.1 °F 14.0 °F 59% 30.03 in 10.0 mi WNW 6.9 mph - N/A   Overcast
3:55 AM 26.6 °F 18.2 °F 14.0 °F 59% 30.04 in 10.0 mi WNW 8.1 mph 18.4 mph N/A   Overcast
4:15 AM 28.4 °F 18.5 °F 14.0 °F 55% 30.03 in 10.0 mi West 11.5 mph 23.0 mph N/A   Overcast
4:35 AM 28.4 °F 18.0 °F 14.0 °F 55% 30.03 in 10.0 mi WNW 12.7 mph 19.6 mph N/A   Overcast
4:55 AM 26.6 °F 15.2 °F 14.0 °F 59% 30.03 in 10.0 mi WNW 13.8 mph 18.4 mph N/A   Overcast
5:15 AM 28.4 °F 19.7 °F 14.0 °F 55% 30.05 in 10.0 mi WNW 9.2 mph 20.7 mph N/A   Overcast
5:35 AM 26.6 °F 17.5 °F 14.0 °F 59% 30.05 in 10.0 mi WNW 9.2 mph - N/A   Overcast
5:55 AM 28.4 °F 19.7 °F 14.0 °F 55% 30.06 in 10.0 mi WNW 9.2 mph 24.2 mph N/A   Overcast
6:15 AM 26.6 °F 16.2 °F 14.0 °F 59% 30.06 in 10.0 mi WNW 11.5 mph 21.9 mph N/A   Overcast
7:15 AM 26.6 °F 16.8 °F 14.0 °F 59% 30.06 in 10.0 mi WNW 10.4 mph 17.3 mph N/A   Mostly Cloudy
7:35 AM 28.4 °F 19.1 °F 14.0 °F 55% 30.07 in 10.0 mi WNW 10.4 mph 20.7 mph N/A   Mostly Cloudy
7:55 AM 28.4 °F 18.5 °F 14.0 °F 55% 30.08 in 10.0 mi West 11.5 mph 19.6 mph N/A   Mostly Cloudy
8:15 AM 28.4 °F 19.7 °F 14.0 °F 55% 30.07 in 10.0 mi WNW 9.2 mph 20.7 mph N/A   Scattered Clouds
8:35 AM 28.4 °F 19.1 °F 14.0 °F 55% 30.08 in 10.0 mi WNW 10.4 mph 18.4 mph N/A   Mostly Cloudy
8:55 AM 28.4 °F 18.0 °F 14.0 °F 55% 30.09 in 10.0 mi WNW 12.7 mph 21.9 mph N/A   Scattered Clouds
9:15 AM 30.2 °F 22.6 °F 14.0 °F 51% 30.09 in 10.0 mi WNW 8.1 mph 16.1 mph N/A   Scattered Clouds
9:35 AM 30.2 °F 18.5 °F 14.0 °F 51% 30.10 in 10.0 mi WNW 17.3 mph 27.6 mph N/A   Mostly Cloudy
9:55 AM 30.2 °F 21.3 °F 14.0 °F 51% 30.10 in 10.0 mi West 10.4 mph 17.3 mph N/A   Overcast
10:15 AM 30.2 °F 21.3 °F 14.0 °F 51% 30.11 in 10.0 mi WNW 10.4 mph 20.7 mph N/A   Mostly Cloudy
10:35 AM 30.2 °F 21.9 °F 14.0 °F 51% 30.11 in 10.0 mi NW 9.2 mph 17.3 mph N/A   Scattered Clouds
10:55 AM 32.0 °F 23.0 °F 14.0 °F 48% 30.11 in 10.0 mi West 11.5 mph 21.9 mph N/A   Mostly Cloudy
11:15 AM 32.0 °F 24.8 °F 14.0 °F 48% 30.11 in 10.0 mi NW 8.1 mph 24.2 mph N/A   Mostly Cloudy
11:35 AM 32.0 °F 23.0 °F 14.0 °F 48% 30.10 in 10.0 mi NW 11.5 mph 19.6 mph N/A   Mostly Cloudy
11:55 AM 32.0 °F 23.6 °F 14.0 °F 48% 30.09 in 10.0 mi WNW 10.4 mph 18.4 mph N/A   Scattered Clouds
12:15 PM 32.0 °F 24.2 °F 14.0 °F 48% 30.09 in 10.0 mi NW 9.2 mph 24.2 mph N/A   Scattered Clouds
12:35 PM 33.8 °F 27.0 °F 15.8 °F 48% 30.07 in 10.0 mi WNW 8.1 mph 16.1 mph N/A   Scattered Clouds
12:55 PM 33.8 °F 25.8 °F 15.8 °F 48% 30.08 in 10.0 mi WNW 10.4 mph 20.7 mph N/A   Mostly Cloudy
1:15 PM 33.8 °F 24.8 °F 17.6 °F 52% 30.08 in 10.0 mi WNW 12.7 mph 23.0 mph N/A   Mostly Cloudy
1:35 PM 35.6 °F 27.5 °F 17.6 °F 48% 30.08 in 10.0 mi NNW 11.5 mph 23.0 mph N/A   Mostly Cloudy
1:55 PM 35.6 °F 26.6 °F 15.8 °F 44% 30.08 in 10.0 mi NW 13.8 mph 19.6 mph N/A   Mostly Cloudy
2:15 PM 35.6 °F 25.5 °F 17.6 °F 48% 30.08 in 10.0 mi WNW 17.3 mph 24.2 mph N/A   Scattered Clouds
2:35 PM 35.6 °F 27.1 °F 15.8 °F 44% 30.08 in 10.0 mi WNW 12.7 mph 25.3 mph N/A   Clear
2:55 PM 35.6 °F 29.9 °F 15.8 °F 44% 30.08 in 10.0 mi NW 6.9 mph 19.6 mph N/A   Clear
3:15 PM 35.6 °F 26.6 °F 17.6 °F 48% 30.09 in 10.0 mi WNW 13.8 mph 24.2 mph N/A   Scattered Clouds
3:55 PM 35.6 °F 27.5 °F 17.6 °F 48% 30.10 in 10.0 mi NW 11.5 mph 19.6 mph N/A   Clear
4:15 PM 35.6 °F 27.5 °F 17.6 °F 48% 30.11 in 10.0 mi WNW 11.5 mph 21.9 mph N/A   Clear
4:35 PM 35.6 °F 28.6 °F 17.6 °F 48% 30.11 in 10.0 mi WNW 9.2 mph 18.4 mph N/A   Clear
4:55 PM 35.6 °F 26.6 °F 17.6 °F 48% 30.12 in 10.0 mi WNW 13.8 mph 19.6 mph N/A   Clear
5:15 PM 33.8 °F 25.8 °F 17.6 °F 52% 30.12 in 10.0 mi WNW 10.4 mph - N/A   Clear
5:35 PM 33.8 °F 27.7 °F 17.6 °F 52% 30.12 in 10.0 mi NW 6.9 mph - N/A   Clear
5:55 PM 33.8 °F 28.6 °F 17.6 °F 52% 30.13 in 10.0 mi NW 5.8 mph - N/A   Clear
6:15 PM 33.8 °F 27.7 °F 17.6 °F 52% 30.15 in 10.0 mi WNW 6.9 mph - N/A   Clear
6:35 PM 33.8 °F 28.6 °F 17.6 °F 52% 30.17 in 10.0 mi NNW 5.8 mph - N/A   Clear
6:55 PM 33.8 °F 30.8 °F 17.6 °F 52% 30.21 in 10.0 mi NNW 3.5 mph - N/A   Clear
7:15 PM 33.8 °F 29.6 °F 17.6 °F 52% 30.24 in 10.0 mi NNW 4.6 mph - N/A   Clear
7:35 PM 32.0 °F - 17.6 °F 55% 30.25 in 10.0 mi Calm Calm - N/A   Clear
7:55 PM 32.0 °F 24.8 °F 17.6 °F 55% 30.25 in 10.0 mi NNW 8.1 mph - N/A   Clear
8:15 PM 32.0 °F 24.2 °F 17.6 °F 55% 30.26 in 10.0 mi NNW 9.2 mph - N/A   Clear
8:35 PM 32.0 °F 23.6 °F 17.6 °F 55% 30.25 in 10.0 mi NNW 10.4 mph 17.3 mph N/A   Clear
8:55 PM 32.0 °F 22.1 °F 17.6 °F 55% 30.25 in 10.0 mi North 13.8 mph 24.2 mph N/A   Clear
9:15 PM 32.0 °F 24.2 °F 17.6 °F 55% 30.26 in 10.0 mi North 9.2 mph 16.1 mph N/A   Clear
9:35 PM 30.2 °F 22.6 °F 17.6 °F 60% 30.26 in 10.0 mi NNW 8.1 mph - N/A   Clear
9:55 PM 30.2 °F 21.9 °F 17.6 °F 60% 30.26 in 10.0 mi North 9.2 mph 18.4 mph N/A   Clear
10:15 PM 30.2 °F 23.4 °F 17.6 °F 60% 30.28 in 10.0 mi North 6.9 mph - N/A   Clear
10:35 PM 28.4 °F 19.7 °F 17.6 °F 64% 30.29 in 10.0 mi NNW 9.2 mph - N/A   Clear
10:55 PM 28.4 °F 20.4 °F 17.6 °F 64% 30.30 in 10.0 mi North 8.1 mph - N/A   Clear
11:15 PM 28.4 °F 21.2 °F 17.6 °F 64% 30.30 in 10.0 mi North 6.9 mph - N/A   Clear
11:35 PM 28.4 °F 24.6 °F 17.6 °F 64% 30.30 in 10.0 mi North 3.5 mph - N/A   Clear
11:55 PM 28.4 °F 23.3 °F 17.6 °F 64% 30.30 in 10.0 mi NNW 4.6 mph - N/A   Clear